Weather in Riabyna

Ukraine / Sumi District     50°20′48″N   35°13′41″E
temp.,
°C
wind,
m/s
gust,
m/s
humid.,
%
clouds,
%
prec.,
mm/h
press.,
hPa
HPBL,
m
21 october, thu
thu2100:00+9ssw81750100 0.0 1020549
03:00+10ssw81866100 0.0 1019589
06:00+9ssw8178495 0.0 1016529
09:00+10sw91782100 0.0 1016601
12:00+15sw101557100 0.0 1015901
15:00+17sw91648100 0.0 10131097
18:00+15sw9165384 0.0 1011949
21:00+13sw10186168 0.0 1011781
22 october, fri
fri2200:00+11ssw9176879 0.0 1010627
03:00+10sw8168073 0.0 1009565
06:00+10sw7148572 0.0 1009425
09:00+11sw71378100 0.0 1010528
12:00+16w8104588 0.0 10111232
15:00+17w710365 0.0 10121572
18:00+12wsw37495 0.0 1013126
21:00+11sw47565 0.0 1014102
23 october, sat
sat2300:00+9sw366393 0.0 1013101
03:00+8ssw487041 0.0 1013122
06:00+7w2271100 0.0 101315
09:00+9sw476415 0.0 1014231
12:00+13w812380 0.0 10141533
15:00+13w912405 0.0 10151978
18:00+9wnw49505 0.0 1017247
21:00+6wsw410622 0.0 1018257
24 october, sun
sun2400:00+4w410675 0.0 1019244
03:00+3wsw49755 0.0 1019218
06:00+2wsw39775 0.0 1019201
09:00+5w497412 0.0 1020564
12:00+6wnw7964100 0.0 10201059
15:00+6wnw7967100 0.2 10201075
18:00+4nw61182100 0.3 10201101
21:00+2nw71289100 0.4 1021868
25 october, mon
mon2500:00+3nnw7117397 0.1 10231116
03:00+2n71066100 0.1 10241217
06:00+2n61073100 0.0 10271121
09:00+3n6965100 0.1 10291310
12:00+4n675197 0.0 10311337
15:00+5n564325 0.0 10311355
18:00+2nne37545 0.0 1034166
21:00+1ne23635 0.0 103552